Regional Weather Roundup
Issued by NWS

Home | Current Version | Previous Version | Text Only | Print | Product List | Glossary On
Versions: 1 2 3 4 5 6 7 8 9 10 11 12 13 14 15 16 17 18 19 20 21 22 23 24 25 26 27 28 29 30 31 32 33 34 35 36 37 38 39 40 41 42 43 44 45 46 47 48 49 50
000
ASUS43 KIND 230809
RWRIN

WEATHER ROUNDUP FOR INDIANA
NATIONAL WEATHER SERVICE INDIANAPOLIS IN
400 AM EDT THU MAR 23 2017

NOTE: "FAIR" INDICATES FEW OR NO CLOUDS BELOW 12,000 FEET WITH NO
SIGNIFICANT WEATHER AND/OR OBSTRUCTIONS TO VISIBILITY.

* - STATION DOES NOT REPORT WEATHER SUCH AS PRECIPITATION OR FOG.

+ - STATION NOT QUALITY CONTROLLED BY THE NATIONAL WEATHER SERVICE.
    USE DATA WITH CAUTION...ESPECIALLY DEWPOINT AND RELATIVE
    HUMIDITY OBSERVATIONS.

INZ001>003-010>013-019-020-230900-
NORTHWEST INDIANA

CITY           SKY/WX    TMP DP  RH WIND       PRES   REMARKS
GARY /AIRPORT/ CLOUDY    30  19  65 E5        30.46F WCI  25
KNOX *+        CLOUDY    27   3  36 E6        30.47S WCI  20
LA PORTE +     CLOUDY    26  20  77 SE6       30.47F WCI  20
MICHIGAN CITY+ CLOUDY    27  19  74 CALM      30.47F
MONTICELLO +   CLOUDY    29  21  71 E7        30.45S WCI  22
RENSSELAER +     N/A     30  23  74 E8        30.45S WCI  23
VALPARAISO     CLOUDY    27  19  72 E8        30.46F WCI  19

$$

LMZ046-743>745-230900-
SOUTHERN LAKE MICHIGAN

STATION/POSITION TIME  TEMP    WIND        PRES    WAVE
                       AIR SEA DIR/SP/G            HT
                 (UTC) (F)     (DEG/KT/KT) (MB)    (FT)
BURNS HARBOR     0740   32     140/  8/ 11 1031.8S
MICHIGAN CITY    0740   28      90/  4/  5   N/A

$$

INZ004-005-014>016-021>024-230900-
NORTH CENTRAL INDIANA

CITY           SKY/WX    TMP DP  RH WIND       PRES   REMARKS
GOSHEN         CLEAR     25  14  63 SE8       30.49S WCI  16
LOGANSPORT +   CLEAR     27  21  80 E9        30.46F WCI  17
PERU/GRISSOM   CLEAR     27  21  76 E8        30.44F WCI  19
ROCHESTER +    CLEAR     28  23  80 E7        30.47F WCI  21
SOUTH BEND     CLEAR     26  17  68 SE8       30.47F WCI  18
WARSAW +       CLEAR     25  18  74 E5        30.48F WCI  19

$$

INZ006>009-017-018-025>027-230900-
NORTHEAST INDIANA

CITY           SKY/WX    TMP DP  RH WIND       PRES   REMARKS
ANGOLA *+      CLEAR     23  16  74 SE6       30.49S WCI  16
AUBURN +       CLEAR     23  18  80 E5        30.51F WCI  17
FORT WAYNE     PTCLDY    23  17  78 E7        30.50S WCI  15
HUNTINGTON +   CLEAR     25  17  73 E6        30.49S WCI  18
KENDALLVILLE + CLEAR     24  17  74 SE6       30.49S WCI  16

$$

INZ028-029-035-036-043>045-051>053-230900-
WEST CENTRAL INDIANA

CITY           SKY/WX    TMP DP  RH WIND       PRES   REMARKS
CRAWFORDSVL +  CLOUDY    26  22  85 E7        30.43S WCI  18
GREENCASTLE +  CLEAR     30  21  69 E6        30.43S WCI  24
LAFAYETTE      CLOUDY    27  21  78 E8        30.44S WCI  19
TERRE HAUTE    CLEAR     31  21  66 E7        30.42F WCI  24

$$

INZ030>032-037>040-046>048-054>057-064-065-230900-
CENTRAL INDIANA

CITY           SKY/WX    TMP DP  RH WIND       PRES   REMARKS
CP ATTERBURY + CLEAR     28  23  80 E6        30.44S WCI  22
FISHERS *+     CLEAR     27  23  86 E3        30.44F
FRANKFORT +    CLOUDY    30  24  79 SE10      30.44F WCI  21
GREENWOOD *+   CLEAR     29  22  76 E6        30.44S WCI  23
INDIANAPOLIS   PTCLDY    30  20  66 E10       30.42F WCI  21
-EAGLE CREEK   CLEAR     29  19  66 E7        30.43F WCI  22
KOKOMO +       CLEAR     27  21  78 E9        30.46F WCI  18
MARION +       CLEAR     27  18  69 E7        30.48S WCI  19
MT COMFORT *+  CLEAR     25  19  80 E7        30.44F WCI  17
SHELBYVILLE    CLEAR     29  20  69 E8        30.43S WCI  21
ZIONSVILLE +   CLEAR     27  21  77 E8        30.44F WCI  19

$$

INZ033-034-041-042-049-050-058-059-230900-
EAST CENTRAL INDIANA

CITY           SKY/WX    TMP DP  RH WIND       PRES   REMARKS
MUNCIE         CLEAR     27  20  75 E8        30.46F WCI  19
RICHMOND +     CLEAR     25  19  80 E10       30.45S WCI  15

$$

INZ060-061-067>069-081>083-085>088-230900-
SOUTHWEST INDIANA

CITY           SKY/WX    TMP DP  RH WIND       PRES   REMARKS
EVANSVILLE     CLEAR     33  23  66 NE7       30.37F WCI  27
HUNTINGBURG *+ CLEAR     33  20  58 NE5       30.39F WCI  29
WASHINGTON +   CLEAR     32  21  65 MISG      30.40F

$$

INZ062-063-066-070>080-084-089>092-230900-
SOUTH CENTRAL AND SOUTHEAST INDIANA

CITY           SKY/WX    TMP DP  RH WIND       PRES   REMARKS
BEDFORD +      CLEAR     30  19  64 E6        30.40F WCI  24
BLOOMINGTON    CLEAR     30  18  60 E6        30.40F WCI  24
MADISON *+     CLEAR     32  19  59 E8G17     30.42F WCI  25
NORTH VERNON + CLEAR     32  19  59 E5        30.42F WCI  27
SEYMOUR +      CLEAR     28  19  69 NE5       30.42F WCI  23

$$




USA.gov is the U.S. government's official web portal to all federal, state and local government web resources and services.